STARLINK-30964, 58402

Orbit data source: Space-Track

STARLINK-30964, 58402 is a payload satellite owned by SpaceX/Seattle (US) in LEO that was launched on Wed, 22 Nov 2023 UTC via an FALCON 9 launch vehicle from the Air Force Eastern Test Range (AFETR). Payload-class satellites include a variety of spacecraft equipped with specific instruments for various scientific and technological missions. These include communications satellites like Starlink; space stations such as the ISS; scientific satellites like the Hubble; Earth observation satellites from companies like Planet Labs, Umbra, and HawkEye 360; GPS; miniature CubeSats for education and research; and military/defense satellites.

Loading next visibility...
Identifier
58402, 2023-180A
Orbit
LEO
Country
Flag of USUS
Related business
Manufacturer
SpaceX/Seattle
Mission
Operational Commercial Communications
Bus & Motor
STARLINK V2M, Unknown motor
Mass
730 kg wet, ~700 kg dry
Launch date (UTC)
2023-11-22 (3 years ago)
Launch vehicle
FALCON 9
Launch site
Air Force Eastern Test Range (AFETR)
Object type
Payload
Rocket body
Debris
Shape & HBR
Box + 2 Pan, 17.7 m
Radar Cross Section
33.884 m², Large (>1 m²)

Expand to show TLE details & history
Last TLE update: 2 days ago

TLE from 2 days ago
0 STARLINK-30964
1 58402U 23180A   26171.45976020 -.00002520  00000-0 -82092-4 0  9999
2 58402  43.0039 192.1348 0001796 275.2827  84.7819 15.27571173143345
Epoch: 2026-06-20T11:02Z
TLE epoch observation values (Epoch: 2026-06-20T11:02:03.281Z)
Latitude
-0.00006°
Longitude
117.94699°
Altitude
482.74 km
Speed
7.626 km/s
True Right ascension
12h 48m 32s
True Declination
0° 00' 00"
Sunlit
Object was in daylight at epoch
Visualization orbit readout
Latitude
Unknown
Longitude
Unknown
Altitude
Unknown
Speed
Unknown
Apparent Right ascension
Unknown
Apparent Declination
Unknown
Sunlit
N/A
Visualization observer readout
Local Sidereal Time
21:39:24
Azimuth
Unknown
Elevation
Unknown
Doppler factor
Unknown
Orbital elements
Apogee altitude
486.253 km
Perigee altitude
483.787 km
Semi-major axis
6,863.157 km
Eccentricity
0.00018
Inclination
43.0039°
RAAN
192.1348°
Arg. of periapsis
275.2827°
True anomaly
84.8024°
Mean anomaly
84.7819°
Eccentric anomaly
84.79215°
Mean motion
3.81731 °/min
Orbital period
94.31 mins
BSTAR
-0.000082092
Loading maneuver chart data...
Computing Atmospheric mass density...
Loading historical data...
Loading historical data...
Loading historical data...
Loading historical data...
Loading historical data...
Loading historical data...
Loading historical data...

Documentation

Showing up to 5 results
|